Temp
40 42 40 39 38 37 36 35 33 31 31 31 31 30 31 30 30 30 30 29 29 29
40 41 40 38 37 36 35 35 32 31 30 29 29 30 29 28 28 29 30 30 29 28
40 41 40 36 35 33 33 33 31 29 29 28 28 28 28 27 28 27 28 29 27 27
38 38 36 36 35 33 33 31 30 29 28 28 27 27 26 26 25 23 23 25 25 25
35 35 35 35 32 31 31 30 29 28 27 26 26 25 24 22 22 21 22 23 23 22
34 33 33 31 30 30 29 27 27 26 25 24 24 23 23 23 23 22 22 22 21 20
34 33 32 30 29 29 28 26 24 24 22 22 22 22 22 23 22 21 21 21 21 20
34 33 30 28 27 24 24 24 23 21 21 21 21 21 21 22 20 19 20 21 21 21
30 27 26 25 23 23 22 20 21 19 19 18 21 25 26 23 20 20 20 20 21 22
27 25 25 24 23 22 20 20 20 18 18 18 20 26 27 27 24 22 21 21 21 21
26 25 23 22 21 20 19 17 17 17 17 18 19 25 26 26 23 22 21 21 21 21
25 23 21 20 19 19 17 16 16 16 15 16 17 25 26 25 21 21 21 22 23 23
24 21 19 20 18 17 16 15 16 14 13 14 11 22 24 25 21 13 17 20 23 24
22 20 20 18 17 14 14 15 14 13 13 12 12 14 24 26 20 16 15 18 18 21
MSLP
1011.86 1012.52 1013.18 1013.69 1014.20 1015.04 1015.74 1016.42 1017.23 1018.01 1018.74 1019.35 1019.80 1019.90 1020.65 1021.31 1021.87 1022.43 1022.80 1023.37 1023.60 1023.59
1011.35 1011.66 1012.09 1012.89 1013.70 1014.34 1014.85 1015.76 1016.66 1017.48 1018.33 1019.07 1019.60 1019.81 1020.61 1021.29 1021.70 1022.21 1022.64 1023.01 1023.27 1023.45
1009.96 1010.81 1011.75 1012.61 1013.00 1013.92 1014.91 1015.47 1016.40 1017.39 1018.17 1018.81 1019.29 1019.37 1020.43 1021.15 1021.60 1022.05 1022.37 1022.84 1023.04 1023.02
1009.17 1009.85 1010.85 1011.86 1012.68 1013.27 1014.25 1015.20 1016.14 1016.93 1017.78 1018.58 1019.03 1019.30 1020.18 1020.93 1021.66 1022.11 1022.43 1022.83 1022.93 1022.85
1009.08 1009.82 1010.53 1011.28 1012.43 1013.09 1013.97 1014.98 1015.67 1016.47 1017.09 1017.90 1018.21 1018.91 1019.63 1020.71 1021.58 1022.17 1022.23 1022.48 1022.73 1022.63
1008.43 1009.24 1009.99 1010.82 1011.84 1012.98 1013.76 1015.03 1015.81 1016.59 1017.16 1017.82 1018.16 1018.87 1019.79 1020.47 1021.00 1021.65 1022.00 1022.04 1022.28 1022.28
1007.42 1008.04 1009.33 1010.10 1011.09 1012.31 1013.19 1014.55 1015.32 1016.15 1016.74 1017.38 1017.79 1018.56 1019.45 1020.10 1020.63 1021.05 1021.50 1021.62 1021.75 1021.85
1006.46 1007.35 1008.74 1009.59 1010.65 1011.93 1012.92 1014.08 1014.73 1015.40 1016.08 1016.99 1017.56 1018.02 1018.69 1019.35 1019.90 1020.57 1020.79 1020.95 1021.07 1021.20
1005.67 1006.76 1007.92 1008.77 1009.94 1011.10 1012.34 1013.60 1014.49 1015.26 1015.51 1016.24 1016.96 1017.37 1017.89 1018.77 1019.68 1020.00 1020.08 1019.94 1020.22 1020.40
1004.94 1006.34 1007.14 1008.02 1009.21 1010.15 1011.39 1012.58 1013.85 1014.97 1015.62 1016.13 1016.69 1016.82 1017.38 1018.03 1018.54 1019.17 1019.47 1019.28 1019.44 1019.57
1004.17 1005.38 1006.77 1007.84 1008.76 1009.90 1010.82 1011.84 1012.93 1014.01 1014.62 1015.25 1015.63 1016.26 1017.01 1017.54 1018.07 1018.36 1018.66 1018.76 1018.63 1018.81
1003.11 1004.53 1005.95 1007.15 1008.28 1009.38 1010.54 1011.40 1012.60 1013.43 1014.04 1014.59 1014.73 1015.17 1015.62 1016.32 1017.11 1017.55 1017.92 1017.75 1017.97 1017.97
1002.72 1003.72 1004.86 1005.95 1007.64 1008.81 1009.95 1011.48 1012.74 1013.00 1013.86 1014.19 1014.84 1014.82 1015.13 1015.23 1015.76 1016.66 1016.96 1017.14 1017.09 1017.03
1002.43 1003.54 1004.71 1005.76 1007.06 1008.20 1008.85 1010.70 1011.50 1012.37 1013.28 1013.92 1013.89 1014.54 1014.67 1014.72 1015.03 1015.38 1015.82 1016.29 1016.43 1016.27
Wind_Speed
15 11 10 13 11 11 11 9 9 8 8 8 7 6 6 4 3 2 2 5 4 3
13 15 14 13 10 9 9 8 10 10 9 7 7 7 6 4 4 3 3 4 4 4
15 16 12 11 13 11 9 10 11 10 9 8 7 7 6 4 3 4 3 3 4 3
14 14 12 13 12 12 11 11 11 11 10 9 7 7 6 4 3 3 1 3 4 5
11 11 12 12 10 11 12 10 12 11 10 9 9 7 6 5 3 3 4 5 5 5
13 13 14 11 11 11 12 10 10 9 9 8 8 7 6 5 5 5 5 5 6 6
16 15 13 12 13 13 12 12 10 8 8 8 8 8 6 6 6 5 5 6 6 7
14 14 13 14 13 11 12 10 10 10 9 8 7 6 8 8 6 6 6 6 7 8
15 15 15 15 15 14 13 12 11 10 11 10 7 13 14 11 7 7 8 6 7 8
15 16 16 16 16 16 15 13 11 10 9 9 7 14 14 14 8 7 7 7 8 9
17 17 15 15 16 15 14 14 13 12 11 10 8 14 14 13 7 7 8 8 9 11
18 18 17 16 16 13 13 12 11 10 11 10 8 19 15 12 7 8 8 8 9 10
16 18 19 17 16 13 12 11 9 9 8 9 8 14 16 14 6 6 5 7 10 12
14 15 14 14 13 13 13 12 11 10 9 9 8 10 15 16 6 6 5 5 4 6
Wind_Direction
187 190 192 187 178 184 183 178 164 161 156 155 154 136 131 131 153 191 225 252 245 258
192 192 193 187 179 180 168 161 158 154 149 147 144 133 134 152 173 207 222 229 241 241
194 198 191 177 181 172 163 150 151 149 147 149 153 134 141 160 177 205 203 227 241 237
195 190 180 187 185 168 155 155 154 153 153 156 150 138 147 161 178 197 183 253 254 275
183 178 183 184 170 156 158 157 157 157 154 158 153 149 146 152 150 189 231 258 264 278
182 181 185 172 160 160 150 155 154 154 156 155 144 138 137 153 181 209 232 250 264 278
187 183 178 160 156 158 157 158 155 154 145 145 143 144 163 177 190 206 227 241 255 262
182 171 162 159 158 152 152 159 152 145 146 145 149 164 172 182 182 201 226 242 249 252
170 163 167 159 159 157 155 153 154 160 154 158 176 188 184 176 189 208 226 246 257 257
165 171 172 163 164 166 163 155 158 159 161 170 177 185 192 203 197 212 230 249 263 267
172 171 167 166 170 166 162 163 166 171 170 170 175 185 198 203 205 218 229 249 256 263
174 170 167 172 172 166 162 160 166 169 166 170 168 186 189 194 201 217 233 250 261 262
172 170 174 171 168 163 158 158 164 160 166 172 169 185 196 197 180 190 220 240 261 260
173 172 171 161 162 158 149 154 162 162 169 178 163 196 196 202 180 187 201 231 233 260